Meteo Giornale » Osservazioni meteo Stati Uniti (USA) » Los Alamitos

ore: 10:55 - Osservazioni Meteo Los Alamitos
Lat. 33° 47' N Lon. 118° 3' W Alt. 11 metri s.l.m.

sereno

26 °C

Sereno

Temp. 24 Ore

19 °C

28 °C

Sud

13 Km/h

Dew point 16 °C

Umidità 54 %

Visibilità  10 Km

Il sole sorge alle ore 06:26

Il sole tramonta alle ore 19:17

Data e Ora Cielo e Fenomeni T °C DP °C Um. % Pres. hPa Vis. km Vento km/h
Oggi h: 10:55 sereno Sereno 26 16 54 1014 10 S 13
Oggi h: 09:55 poco_nuvoloso Poco Nuvoloso 24 16 60 1014 14 N 0
Oggi h: 09:05 foschia Foschia 22 16 68 1014 10 N 0
Oggi h: 08:55 foschia Foschia 22 16 68 1014 10 N 0
Oggi h: 08:45 foschia Foschia 22 16 68 1014 10 N 0
Oggi h: 08:05 foschia Foschia 21 16 73 1014 10 N 0
Oggi h: 07:55 foschia Foschia 21 16 73 1014 10 N 0
Oggi h: 06:55 foschia Foschia 20 16 77 1013 10 N 0
Oggi h: 05:55 coperto Coperto 20 16 77 1012 14 N/NO 9.3
Oggi h: 04:55 coperto Coperto 20 16 77 1012 14 N 5.5
Oggi h: 03:55 coperto Coperto 20 16 77 1012 14 N 0
Oggi h: 03:25 molto_nuvoloso Molto Nuvoloso 19 16 82 1012 14 N 0
Oggi h: 03:15 molto_nuvoloso Molto Nuvoloso 19 16 82 1012 14 N 5.5
Oggi h: 02:55 sereno Sereno 19 16 82 1012 14 N 5.5
Oggi h: 01:55 sereno Sereno 19 17 88 1012 13 N 0
Oggi h: 00:55 sereno Sereno 19 17 88 1012 13 N 0
Ieri h: 23:55 sereno Sereno 20 17 82 1012 14 N 0
Ieri h: 22:55 sereno Sereno 20 17 82 1012 14 N 0
Ieri h: 21:55 sereno Sereno 20 16 77 1012 14 O/NO 7.4
Ieri h: 20:55 sereno Sereno 21 17 77 1011 14 O 7.4
Ieri h: 19:55 sereno Sereno 23 16 64 1010 14 O/NO 11.1
Ieri h: 18:55 sereno Sereno 25 16 57 1010 13 O 16.7
Ieri h: 17:55 sereno Sereno 26 17 57 1010 11 S/SO 13
Ieri h: 16:55 sereno Sereno 27 18 57 1010 11 S/SO 22.2
Ieri h: 15:55 poco_nuvoloso Poco Nuvoloso 27 17 54 1011 11 S 16.7
Ieri h: 14:55 poco_nuvoloso Poco Nuvoloso 27 18 57 1011 11 S/SO 18.5
Ieri h: 13:55 poco_nuvoloso Poco Nuvoloso 27 18 57 1011 11 S 20.3
Ieri h: 12:55 poco_nuvoloso Poco Nuvoloso 28 19 58 1012 11 S/SO 18.5
Ieri h: 11:55 foschia Foschia 28 19 58 1012 10 S/SO 13